QPF
0.00 0.00 0.00 0.00 0.00 0.00 0.00 0.00 0.00 0.00 0.00 0.00 0.00 0.00 0.00 0.00 0.00 0.00 0.00 0.00 0.00 0.00 0.00 0.00 0.00 0.00 0.00 0.00 0.00 0.00 0.00 0.00 0.00 0.00 0.00 0.00 0.00 0.00 0.00 0.00 0.00 0.00 0.00
0.00 0.00 0.00 0.00 0.00 0.00 0.00 0.00 0.00 0.00 0.00 0.00 0.00 0.00 0.00 0.00 0.00 0.00 0.00 0.00 0.00 0.00 0.00 0.00 0.00 0.00 0.00 0.00 0.00 0.00 0.00 0.00 0.00 0.00 0.00 0.00 0.00 0.00 0.00 0.00 0.00 0.00 0.00
0.00 0.00 0.00 0.00 0.00 0.00 0.00 0.00 0.00 0.00 0.00 0.00 0.00 0.00 0.00 0.00 0.00 0.00 0.00 0.00 0.00 0.00 0.00 0.00 0.00 0.00 0.00 0.00 0.00 0.00 0.00 0.00 0.00 0.00 0.00 0.00 0.00 0.00 0.00 0.00 0.00 0.00 0.00
0.00 0.00 0.00 0.00 0.00 0.00 0.00 0.00 0.00 0.00 0.00 0.00 0.00 0.00 0.00 0.00 0.00 0.00 0.00 0.00 0.00 0.00 0.00 0.00 0.00 0.00 0.00 0.00 0.00 0.00 0.00 0.00 0.00 0.00 0.00 0.00 0.00 0.00 0.00 0.00 0.00 0.00 0.00
0.00 0.00 0.00 0.00 0.00 0.00 0.00 0.00 0.00 0.00 0.00 0.00 0.00 0.00 0.00 0.00 0.00 0.00 0.00 0.00 0.00 0.00 0.00 0.00 0.00 0.00 0.00 0.00 0.00 0.00 0.00 0.00 0.00 0.00 0.00 0.00 0.00 0.00 0.00 0.00 0.00 0.00 0.00
0.00 0.00 0.00 0.00 0.00 0.00 0.00 0.00 0.00 0.00 0.00 0.00 0.00 0.00 0.00 0.00 0.00 0.00 0.00 0.00 0.00 0.00 0.00 0.00 0.00 0.00 0.00 0.00 0.00 0.00 0.00 0.00 0.00 0.00 0.00 0.00 0.00 0.00 0.00 0.00 0.00 0.00 0.00
0.00 0.00 0.00 0.00 0.00 0.00 0.00 0.00 0.00 0.00 0.00 0.00 0.00 0.00 0.00 0.00 0.00 0.00 0.00 0.00 0.00 0.00 0.00 0.00 0.00 0.00 0.00 0.00 0.00 0.00 0.00 0.00 0.00 0.00 0.00 0.00 0.00 0.00 0.00 0.00 0.00 0.00 0.00
0.00 0.00 0.00 0.00 0.00 0.00 0.00 0.00 0.00 0.00 0.00 0.00 0.00 0.00 0.00 0.00 0.00 0.00 0.00 0.00 0.00 0.00 0.00 0.00 0.00 0.00 0.00 0.00 0.00 0.00 0.00 0.00 0.00 0.00 0.00 0.00 0.00 0.00 0.00 0.00 0.00 0.00 0.00
0.00 0.00 0.00 0.00 0.00 0.00 0.00 0.00 0.00 0.00 0.00 0.00 0.00 0.00 0.00 0.00 0.00 0.00 0.00 0.00 0.00 0.00 0.00 0.00 0.00 0.00 0.00 0.00 0.00 0.00 0.00 0.00 0.00 0.00 0.00 0.00 0.00 0.00 0.00 0.00 0.00 0.00 0.00
0.00 0.00 0.00 0.00 0.00 0.00 0.00 0.00 0.00 0.00 0.00 0.00 0.00 0.00 0.00 0.00 0.00 0.00 0.00 0.00 0.00 0.00 0.00 0.00 0.00 0.00 0.00 0.00 0.00 0.00 0.00 0.00 0.00 0.00 0.00 0.00 0.00 0.00 0.00 0.00 0.00 0.00 0.00
0.02 0.00 0.00 0.00 0.00 0.00 0.00 0.00 0.00 0.00 0.00 0.00 0.00 0.00 0.00 0.00 0.00 0.00 0.00 0.00 0.00 0.00 0.00 0.00 0.00 0.00 0.00 0.00 0.00 0.00 0.00 0.00 0.00 0.00 0.00 0.00 0.00 0.00 0.00 0.00 0.00 0.00 0.01
0.00 0.03 0.01 0.00 0.00 0.00 0.00 0.00 0.00 0.00 0.00 0.00 0.00 0.00 0.00 0.00 0.00 0.00 0.00 0.00 0.00 0.00 0.00 0.00 0.00 0.00 0.00 0.00 0.00 0.00 0.00 0.00 0.00 0.00 0.00 0.00 0.00 0.00 0.00 0.00 0.00 0.01 0.01
0.00 0.00 0.02 0.00 0.00 0.00 0.00 0.00 0.00 0.00 0.00 0.00 0.00 0.00 0.00 0.00 0.00 0.00 0.00 0.00 0.00 0.00 0.00 0.00 0.00 0.00 0.00 0.00 0.00 0.00 0.00 0.00 0.00 0.00 0.00 0.00 0.00 0.00 0.00 0.00 0.00 0.00 0.00
0.00 0.00 0.00 0.00 0.00 0.00 0.00 0.00 0.00 0.00 0.00 0.00 0.00 0.00 0.00 0.00 0.00 0.00 0.00 0.00 0.00 0.00 0.00 0.00 0.00 0.00 0.00 0.00 0.00 0.00 0.00 0.00 0.00 0.00 0.00 0.00 0.00 0.00 0.00 0.00 0.00 0.01 0.00
0.00 0.00 0.00 0.00 0.00 0.00 0.00 0.00 0.00 0.00 0.00 0.00 0.00 0.00 0.00 0.00 0.00 0.00 0.00 0.00 0.00 0.00 0.00 0.00 0.00 0.00 0.00 0.00 0.00 0.00 0.00 0.00 0.00 0.00 0.00 0.00 0.00 0.00 0.00 0.00 0.01 0.00 0.00
0.01 0.00 0.00 0.00 0.00 0.00 0.00 0.00 0.00 0.00 0.00 0.00 0.00 0.00 0.00 0.00 0.00 0.00 0.00 0.00 0.00 0.00 0.00 0.00 0.00 0.00 0.00 0.00 0.00 0.00 0.00 0.00 0.00 0.00 0.00 0.00 0.00 0.00 0.00 0.00 0.00 0.00 0.00
0.04 0.03 0.01 0.00 0.00 0.00 0.00 0.00 0.00 0.00 0.00 0.00 0.00 0.00 0.00 0.00 0.00 0.00 0.00 0.00 0.00 0.00 0.00 0.03 0.00 0.00 0.00 0.00 0.00 0.00 0.00 0.00 0.00 0.00 0.01 0.01 0.01 0.00 0.00 0.00 0.00 0.00 0.00
0.04 0.05 0.04 0.05 0.05 0.04 0.01 0.01 0.00 0.00 0.01 0.00 0.01 0.01 0.00 0.00 0.00 0.00 0.01 0.02 0.01 0.00 0.00 0.05 0.03 0.02 0.01 0.00 0.00 0.00 0.00 0.00 0.00 0.00 0.00 0.00 0.00 0.00 0.00 0.00 0.00 0.00 0.00
0.01 0.02 0.04 0.03 0.05 0.07 0.13 0.11 0.03 0.01 0.01 0.01 0.03 0.07 0.09 0.05 0.07 0.09 0.04 0.02 0.00 0.02 0.07 0.08 0.09 0.09 0.08 0.03 0.08 0.06 0.03 0.00 0.00 0.00 0.00 0.00 0.00 0.00 0.00 0.00 0.00 0.00 0.00
0.05 0.06 0.07 0.06 0.04 0.07 0.14 0.26 0.34 0.27 0.25 0.11 0.13 0.13 0.13 0.08 0.06 0.04 0.00 0.00 0.01 0.10 0.23 0.31 0.29 0.16 0.08 0.04 0.08 0.16 0.07 0.01 0.00 0.00 0.00 0.00 0.00 0.00 0.00 0.00 0.00 0.00 0.00
0.06 0.09 0.14 0.13 0.13 0.17 0.19 0.21 0.23 0.29 0.31 0.27 0.25 0.28 0.24 0.16 0.04 0.00 0.00 0.02 0.07 0.15 0.34 0.39 0.43 0.33 0.37 0.29 0.20 0.18 0.10 0.01 0.00 0.00 0.00 0.00 0.00 0.00 0.00 0.00 0.00 0.00 0.00
0.08 0.08 0.13 0.13 0.16 0.15 0.21 0.21 0.22 0.23 0.19 0.16 0.12 0.11 0.11 0.07 0.01 0.00 0.00 0.00 0.03 0.01 0.01 0.06 0.17 0.17 0.16 0.19 0.15 0.02 0.00 0.00 0.01 0.00 0.00 0.00 0.00 0.00 0.00 0.00 0.00 0.00 0.00
0.05 0.08 0.09 0.14 0.14 0.11 0.17 0.22 0.22 0.18 0.14 0.12 0.06 0.02 0.01 0.02 0.01 0.00 0.00 0.00 0.01 0.01 0.00 0.02 0.03 0.03 0.02 0.01 0.01 0.00 0.00 0.00 0.00 0.00 0.00 0.00 0.00 0.00 0.00 0.00 0.00 0.00 0.00
0.00 0.04 0.06 0.06 0.13 0.09 0.09 0.11 0.09 0.10 0.06 0.05 0.05 0.03 0.03 0.04 0.05 0.06 0.05 0.05 0.04 0.03 0.01 0.01 0.00 0.01 0.01 0.01 0.01 0.00 0.00 0.00 0.00 0.00 0.00 0.00 0.00 0.00 0.00 0.00 0.00 0.00 0.00
0.00 0.00 0.00 0.00 0.01 0.01 0.01 0.01 0.01 0.02 0.03 0.04 0.06 0.05 0.05 0.06 0.09 0.10 0.09 0.05 0.02 0.02 0.02 0.02 0.01 0.00 0.00 0.01 0.00 0.00 0.00 0.00 0.00 0.00 0.00 0.00 0.00 0.00 0.00 0.00 0.00 0.00 0.00
0.00 0.00 0.00 0.00 0.00 0.00 0.00 0.00 0.00 0.00 0.00 0.01 0.02 0.04 0.05 0.04 0.04 0.03 0.02 0.02 0.02 0.02 0.04 0.02 0.02 0.03 0.02 0.00 0.00 0.01 0.01 0.01 0.00 0.00 0.00 0.00 0.00 0.00 0.00 0.00 0.00 0.00 0.00
MSLP
1012.38 1012.98 1013.61 1014.10 1014.48 1014.81 1015.11 1015.33 1015.59 1015.73 1016.13 1016.55 1017.06 1017.58 1018.05 1018.39 1018.69 1019.19 1019.55 1019.81 1020.13 1020.32 1020.38 1020.57 1020.65 1020.55 1020.55 1020.69 1020.73 1020.74 1020.85 1020.99 1021.27 1020.65 1020.19 1019.70 1019.55 1019.40 1018.91 1018.70 1018.39 1018.24 1017.99
1011.34 1012.00 1012.73 1013.35 1013.91 1014.26 1014.56 1014.84 1015.18 1015.40 1015.81 1016.27 1016.67 1017.21 1017.67 1018.03 1018.28 1018.71 1019.15 1019.39 1019.74 1020.04 1020.10 1020.28 1020.38 1020.47 1020.54 1020.48 1020.63 1020.70 1020.84 1020.77 1020.98 1020.98 1020.37 1020.00 1019.65 1019.13 1018.58 1018.50 1017.94 1017.63 1017.41
1010.42 1011.23 1011.86 1012.47 1012.97 1013.28 1013.72 1014.15 1014.48 1014.96 1015.31 1015.89 1016.25 1016.67 1017.11 1017.50 1017.82 1018.19 1018.60 1018.95 1019.21 1019.39 1019.49 1019.73 1019.88 1020.08 1020.32 1020.32 1020.28 1020.44 1020.48 1020.48 1020.58 1020.67 1020.42 1019.86 1019.43 1018.91 1018.55 1018.26 1017.91 1017.37 1016.91
1009.31 1010.12 1010.86 1011.43 1011.93 1012.47 1012.96 1013.53 1013.99 1014.27 1014.76 1015.16 1015.61 1016.02 1016.33 1016.75 1017.23 1017.63 1018.05 1018.41 1018.65 1018.89 1019.04 1019.16 1019.27 1019.49 1019.65 1019.81 1019.99 1020.07 1020.15 1020.30 1020.29 1020.31 1020.15 1019.92 1019.49 1018.70 1018.63 1018.63 1018.13 1017.57 1017.21
1008.33 1009.13 1009.65 1010.50 1011.31 1011.96 1012.43 1012.85 1013.43 1013.80 1014.04 1014.45 1014.97 1015.45 1015.82 1016.24 1016.68 1017.12 1017.52 1017.90 1018.16 1018.35 1018.45 1018.59 1018.67 1018.74 1018.91 1019.11 1019.37 1019.55 1019.78 1020.06 1020.02 1020.00 1019.97 1019.75 1019.41 1019.09 1018.89 1018.42 1018.13 1017.57 1017.13
1007.01 1008.04 1009.11 1009.75 1010.31 1010.78 1011.46 1011.99 1012.60 1013.09 1013.41 1013.82 1014.29 1014.75 1015.24 1015.53 1015.89 1016.39 1016.85 1017.28 1017.51 1017.71 1017.91 1017.95 1018.01 1018.18 1018.27 1018.46 1018.67 1018.81 1018.92 1019.27 1019.31 1019.46 1019.48 1019.47 1019.05 1018.78 1018.47 1018.19 1017.90 1017.63 1017.11
1005.95 1006.88 1007.72 1008.58 1009.28 1009.83 1010.54 1011.21 1011.70 1012.18 1012.81 1013.07 1013.44 1013.97 1014.39 1014.78 1015.12 1015.59 1016.06 1016.49 1016.85 1017.04 1017.18 1017.37 1017.53 1017.61 1017.73 1017.85 1017.97 1018.05 1018.07 1018.07 1018.12 1018.26 1018.61 1018.43 1018.35 1017.91 1017.89 1017.74 1017.45 1017.20 1016.87
1006.29 1005.83 1006.57 1007.30 1008.10 1008.95 1009.62 1010.19 1010.82 1011.32 1011.79 1012.22 1012.65 1013.15 1013.68 1014.02 1014.47 1014.90 1015.29 1015.77 1015.99 1016.14 1016.30 1016.50 1016.72 1016.89 1017.02 1017.26 1017.45 1017.48 1017.34 1017.14 1017.03 1017.19 1017.45 1017.27 1017.20 1016.99 1017.09 1016.97 1016.90 1016.59 1016.13
1006.00 1005.70 1005.55 1006.20 1007.00 1007.81 1008.46 1008.99 1009.63 1010.29 1010.77 1011.12 1011.63 1012.20 1012.68 1013.12 1013.63 1014.17 1014.71 1015.22 1015.23 1015.24 1015.34 1015.58 1015.85 1016.12 1016.28 1016.54 1016.82 1017.05 1016.80 1016.37 1015.97 1016.22 1016.34 1016.41 1016.36 1016.32 1016.35 1016.70 1016.71 1016.63 1015.85
1004.23 1004.61 1004.60 1005.24 1005.91 1006.47 1007.25 1007.93 1008.54 1009.10 1009.56 1010.28 1010.71 1011.12 1011.65 1012.17 1012.73 1013.20 1013.83 1014.33 1014.61 1014.55 1014.69 1014.80 1014.91 1015.19 1015.46 1015.74 1016.11 1016.22 1016.22 1015.78 1015.70 1015.60 1015.93 1015.88 1015.96 1015.77 1015.77 1016.05 1015.94 1016.24 1015.85
1003.94 1003.63 1003.87 1004.04 1004.62 1005.28 1006.14 1006.92 1007.53 1008.20 1008.78 1009.27 1009.79 1010.24 1010.80 1011.30 1011.72 1012.24 1012.73 1013.27 1013.39 1013.58 1013.73 1013.81 1013.97 1014.28 1014.54 1014.85 1015.11 1015.41 1015.28 1015.03 1015.12 1015.29 1015.36 1015.38 1015.13 1015.00 1014.74 1014.52 1014.85 1015.09 1014.96
1003.20 1002.97 1003.17 1003.37 1003.98 1004.55 1005.05 1005.87 1006.58 1007.29 1007.86 1008.36 1008.94 1009.39 1009.65 1010.05 1010.53 1011.03 1011.52 1012.13 1012.18 1012.53 1012.66 1012.69 1012.87 1013.27 1013.59 1013.84 1013.94 1014.11 1014.17 1014.35 1014.83 1014.96 1015.12 1014.99 1014.79 1014.47 1014.09 1013.95 1013.74 1013.87 1013.88
1003.63 1002.51 1002.66 1003.03 1003.16 1003.49 1004.26 1004.98 1005.77 1006.35 1006.86 1007.34 1007.88 1008.25 1008.50 1008.87 1009.27 1009.73 1010.15 1010.68 1011.16 1011.63 1011.65 1011.71 1012.02 1012.30 1012.51 1012.79 1012.98 1013.14 1013.45 1014.14 1014.29 1014.53 1014.41 1014.27 1014.13 1013.81 1013.56 1013.60 1013.40 1013.34 1013.21
1003.66 1002.25 1001.83 1002.07 1002.36 1002.60 1003.23 1003.91 1004.49 1005.04 1005.57 1006.20 1006.71 1006.99 1007.43 1007.89 1008.14 1008.52 1009.49 1010.11 1010.25 1010.79 1010.78 1011.07 1011.27 1011.61 1011.90 1012.07 1012.26 1012.42 1012.86 1012.91 1013.06 1013.19 1013.33 1013.27 1013.24 1013.45 1013.46 1013.44 1013.51 1013.29 1013.54
1003.62 1002.09 1001.45 1001.18 1001.54 1001.89 1002.23 1002.73 1003.34 1003.55 1004.05 1004.80 1005.23 1005.93 1006.37 1006.68 1006.63 1007.00 1007.84 1008.79 1009.03 1009.25 1009.82 1010.49 1011.07 1011.32 1011.38 1011.43 1011.47 1011.62 1011.96 1012.17 1012.32 1012.31 1012.58 1012.74 1012.89 1013.05 1013.18 1013.01 1013.10 1013.24 1013.46
1004.13 1002.54 1001.05 1000.63 1000.79 1001.09 1001.74 1003.08 1003.43 1003.33 1003.41 1003.80 1004.38 1004.78 1005.33 1005.69 1005.99 1006.46 1006.75 1007.09 1007.30 1007.77 1009.20 1009.37 1009.53 1009.70 1009.87 1010.00 1010.29 1010.55 1010.79 1010.99 1011.15 1011.50 1011.85 1012.16 1012.33 1012.48 1012.75 1012.83 1012.81 1012.94 1013.32
1004.78 1003.47 1002.17 1000.62 1000.29 1000.77 1001.19 1001.93 1003.07 1004.03 1004.20 1004.39 1004.58 1004.30 1004.78 1005.34 1005.76 1005.94 1006.06 1006.27 1006.81 1007.79 1007.80 1008.03 1008.04 1008.25 1008.39 1008.52 1008.65 1008.99 1009.35 1009.57 1009.93 1010.54 1011.09 1011.46 1011.67 1011.95 1012.23 1012.48 1012.83 1013.00 1013.19
1005.13 1004.03 1002.88 1001.79 1000.56 1000.30 1000.59 1001.16 1002.02 1002.97 1003.65 1004.70 1004.82 1004.94 1004.83 1005.34 1005.53 1005.64 1005.77 1006.50 1007.46 1007.05 1006.90 1006.97 1007.12 1007.52 1007.77 1007.83 1007.73 1007.83 1008.08 1008.57 1009.15 1009.70 1010.42 1010.92 1011.45 1011.78 1012.05 1012.27 1012.49 1012.84 1013.02
1005.39 1004.45 1003.39 1002.23 1000.89 1000.43 1000.45 1000.64 1001.08 1001.98 1002.83 1003.72 1004.65 1005.27 1005.72 1005.59 1005.63 1005.78 1005.65 1005.63 1005.92 1006.18 1006.62 1006.90 1006.93 1006.77 1006.65 1006.83 1007.30 1007.52 1007.38 1007.90 1008.40 1009.19 1009.74 1010.32 1010.83 1011.32 1011.56 1011.74 1012.05 1012.50 1012.80
1005.56 1004.69 1003.81 1002.41 1000.90 1000.31 1000.01 1000.51 1000.93 1001.37 1002.16 1002.83 1003.73 1004.71 1005.46 1005.75 1005.95 1005.87 1005.46 1005.45 1005.50 1005.79 1006.43 1006.26 1005.97 1005.71 1005.87 1005.71 1006.02 1006.84 1007.59 1007.75 1007.99 1008.76 1009.84 1010.19 1010.34 1010.52 1011.21 1011.65 1011.94 1012.18 1012.32
1005.97 1004.83 1003.48 1001.69 1000.89 1000.27 999.95 1000.33 1000.80 1001.38 1001.99 1002.79 1003.14 1004.21 1005.30 1005.49 1005.82 1005.74 1005.76 1006.10 1006.25 1005.88 1005.59 1005.55 1005.53 1005.29 1005.33 1007.40 1007.41 1007.39 1007.73 1008.70 1008.75 1009.11 1009.59 1010.35 1010.62 1010.87 1011.00 1011.37 1011.91 1012.10 1012.27
1005.86 1004.83 1003.50 1002.01 1001.41 999.71 1001.04 1001.22 1001.67 1001.72 1002.12 1003.07 1003.97 1003.91 1004.28 1005.22 1006.00 1006.11 1006.32 1006.90 1007.22 1006.84 1006.47 1006.25 1005.76 1005.68 1007.84 1007.70 1008.92 1008.50 1008.89 1009.92 1010.03 1009.80 1009.65 1010.09 1010.43 1010.72 1011.09 1011.41 1011.60 1011.90 1012.01
1006.93 1006.04 1004.60 1003.35 1000.35 999.42 1001.61 1002.75 1002.85 1003.04 1003.62 1004.15 1004.44 1005.37 1005.63 1005.61 1006.15 1006.22 1006.79 1007.39 1008.24 1008.69 1008.40 1008.50 1009.43 1010.32 1010.37 1010.17 1009.80 1010.87 1011.12 1011.60 1011.29 1010.54 1010.52 1010.59 1010.73 1010.86 1010.92 1011.25 1011.52 1011.73 1011.71
1008.31 1007.16 1006.07 1005.29 1004.31 1004.25 1003.98 1003.79 1004.45 1004.65 1005.08 1005.41 1005.84 1005.75 1005.77 1006.56 1006.62 1007.75 1007.17 1007.78 1009.32 1010.28 1010.04 1010.76 1011.33 1011.49 1011.57 1011.66 1011.14 1012.16 1011.79 1011.90 1011.09 1010.97 1011.19 1011.36 1011.26 1011.28 1011.06 1011.17 1011.34 1011.34 1011.36
1009.38 1008.83 1007.95 1007.25 1007.32 1007.56 1006.09 1006.41 1006.00 1006.47 1006.97 1007.05 1006.78 1007.26 1006.94 1007.69 1008.19 1008.33 1008.15 1009.09 1010.01 1010.07 1010.43 1011.15 1011.41 1011.93 1011.80 1011.84 1012.39 1012.03 1011.97 1011.02 1011.03 1011.66 1011.67 1011.61 1011.50 1011.65 1011.62 1011.55 1011.61 1011.53 1011.37
1010.78 1010.37 1010.12 1009.58 1009.33 1009.27 1009.30 1008.82 1008.73 1009.00 1009.22 1008.73 1008.88 1009.32 1010.06 1010.18 1009.51 1010.41 1009.55 1011.46 1011.39 1011.49 1011.46 1012.09 1012.98 1012.66 1012.47 1012.45 1012.82 1012.49 1012.61 1011.42 1011.57 1011.62 1011.83 1011.93 1011.84 1011.95 1012.02 1012.11 1011.83 1011.69 1011.61
Thickness
5811 5811 5811 5812 5814 5815 5815 5817 5817 5819 5817 5816 5814 5810 5808 5806 5805 5801 5799 5798 5795 5793 5794 5792 5792 5795 5794 5795 5796 5796 5795 5795 5787 5796 5803 5807 5807 5808 5811 5812 5814 5814 5815
5813 5814 5812 5813 5814 5815 5815 5817 5818 5818 5819 5815 5816 5813 5810 5809 5809 5805 5802 5803 5799 5795 5795 5794 5794 5795 5794 5796 5796 5796 5795 5797 5793 5790 5799 5803 5806 5812 5815 5815 5817 5818 5819
5817 5814 5814 5814 5816 5819 5819 5818 5819 5818 5817 5817 5815 5814 5812 5811 5810 5810 5807 5804 5803 5801 5800 5798 5797 5796 5795 5796 5798 5798 5799 5800 5799 5796 5797 5806 5809 5814 5816 5818 5820 5823 5824
5823 5818 5815 5816 5818 5818 5820 5819 5818 5819 5817 5817 5817 5816 5816 5815 5813 5812 5810 5807 5805 5804 5803 5802 5801 5799 5799 5799 5799 5800 5801 5800 5801 5799 5799 5802 5807 5816 5815 5813 5814 5821 5821
5825 5822 5820 5817 5816 5815 5817 5820 5818 5818 5819 5818 5817 5816 5816 5816 5815 5812 5811 5809 5807 5805 5805 5804 5805 5805 5805 5805 5803 5802 5801 5799 5799 5799 5798 5800 5803 5806 5808 5814 5813 5818 5820
5830 5825 5821 5819 5817 5819 5819 5820 5819 5818 5819 5819 5818 5817 5815 5817 5817 5815 5813 5810 5810 5807 5804 5805 5807 5807 5806 5806 5806 5807 5807 5802 5800 5798 5799 5798 5803 5806 5812 5812 5813 5810 5809
5833 5830 5828 5824 5820 5820 5819 5818 5819 5820 5817 5819 5820 5819 5818 5818 5817 5816 5814 5813 5811 5809 5807 5806 5806 5809 5807 5807 5807 5807 5809 5809 5809 5809 5802 5804 5805 5812 5812 5810 5812 5813 5811
5815 5829 5832 5831 5826 5822 5821 5820 5820 5820 5820 5819 5819 5820 5818 5820 5817 5815 5813 5813 5812 5812 5811 5810 5809 5809 5809 5806 5805 5807 5809 5812 5814 5812 5811 5814 5815 5816 5815 5815 5815 5817 5820
5815 5822 5832 5835 5830 5826 5823 5823 5822 5820 5820 5822 5821 5820 5820 5821 5818 5815 5811 5810 5812 5813 5815 5814 5813 5811 5811 5809 5807 5804 5807 5812 5817 5818 5818 5818 5819 5819 5817 5814 5809 5808 5812
5828 5829 5832 5836 5834 5832 5828 5825 5824 5824 5823 5820 5821 5822 5822 5821 5819 5816 5812 5813 5810 5813 5814 5815 5815 5815 5813 5811 5808 5807 5805 5810 5813 5817 5819 5819 5819 5818 5819 5816 5815 5804 5803
5820 5831 5832 5838 5838 5837 5832 5827 5826 5823 5821 5821 5820 5821 5820 5821 5821 5817 5814 5816 5816 5814 5815 5816 5819 5817 5815 5813 5811 5810 5810 5815 5815 5815 5816 5817 5819 5820 5821 5821 5818 5812 5807
5818 5822 5830 5835 5836 5837 5835 5830 5827 5822 5820 5819 5817 5817 5822 5824 5822 5819 5817 5815 5820 5818 5817 5820 5822 5819 5817 5816 5815 5815 5815 5814 5813 5813 5812 5812 5814 5818 5821 5822 5820 5817 5814
5806 5821 5823 5829 5834 5839 5834 5830 5825 5823 5820 5819 5817 5817 5820 5823 5825 5822 5819 5818 5817 5819 5821 5822 5821 5819 5818 5817 5817 5816 5814 5811 5811 5807 5809 5812 5815 5820 5820 5818 5817 5815 5811
5793 5814 5826 5828 5832 5837 5837 5834 5829 5826 5824 5821 5820 5819 5819 5821 5824 5827 5820 5816 5816 5816 5819 5817 5816 5816 5817 5818 5818 5815 5814 5816 5815 5814 5813 5816 5818 5815 5812 5812 5808 5808 5801
5785 5805 5816 5827 5828 5832 5836 5835 5833 5836 5834 5827 5827 5823 5819 5820 5829 5830 5825 5819 5821 5821 5816 5813 5809 5809 5811 5813 5815 5816 5814 5814 5813 5814 5813 5812 5812 5809 5806 5808 5806 5800 5792
5770 5789 5809 5818 5823 5827 5826 5821 5821 5827 5830 5831 5828 5829 5826 5826 5827 5824 5824 5824 5823 5820 5812 5811 5810 5812 5812 5814 5813 5813 5814 5814 5814 5812 5810 5809 5807 5805 5800 5798 5798 5795 5786
5753 5769 5786 5807 5815 5815 5818 5819 5815 5815 5813 5814 5815 5821 5820 5819 5814 5815 5817 5819 5813 5808 5813 5811 5812 5813 5815 5816 5818 5817 5816 5818 5816 5810 5807 5805 5803 5800 5796 5792 5786 5783 5778
5738 5752 5767 5783 5801 5808 5811 5812 5812 5811 5811 5807 5806 5808 5809 5807 5807 5808 5809 5807 5802 5806 5812 5810 5812 5812 5812 5813 5815 5816 5815 5813 5811 5807 5802 5799 5793 5789 5784 5781 5778 5773 5770
5724 5738 5752 5767 5786 5795 5801 5803 5806 5806 5806 5802 5796 5794 5792 5795 5798 5800 5803 5810 5808 5806 5803 5801 5803 5805 5807 5809 5807 5807 5810 5809 5805 5800 5797 5793 5788 5781 5778 5775 5772 5766 5761
5712 5725 5736 5754 5772 5780 5789 5789 5791 5798 5797 5796 5792 5788 5783 5785 5789 5791 5798 5802 5803 5799 5794 5796 5796 5796 5798 5801 5802 5799 5794 5799 5797 5792 5784 5781 5779 5777 5767 5763 5762 5757 5756
5698 5713 5728 5749 5757 5766 5774 5775 5777 5777 5782 5782 5785 5779 5771 5770 5775 5783 5784 5780 5779 5784 5788 5791 5786 5755 5749 5759 5771 5776 5778 5775 5779 5779 5775 5767 5763 5760 5758 5754 5750 5747 5745
5689 5703 5720 5736 5738 5751 5744 5753 5756 5760 5764 5762 5759 5761 5758 5757 5759 5763 5765 5760 5758 5761 5766 5770 5774 5764 5743 5739 5738 5755 5756 5754 5754 5758 5761 5755 5752 5749 5745 5742 5740 5737 5736
5669 5681 5696 5708 5711 5718 5724 5727 5732 5736 5737 5738 5739 5726 5729 5738 5739 5744 5747 5745 5737 5732 5733 5734 5732 5724 5725 5727 5736 5727 5729 5728 5731 5738 5739 5738 5738 5736 5735 5732 5730 5727 5725
5645 5660 5668 5678 5690 5694 5706 5710 5706 5710 5712 5714 5711 5710 5706 5709 5714 5711 5727 5730 5718 5708 5710 5702 5702 5700 5705 5707 5712 5705 5711 5712 5718 5721 5719 5718 5718 5717 5721 5723 5721 5718 5714
5619 5631 5635 5649 5652 5658 5662 5667 5679 5676 5674 5682 5687 5687 5694 5683 5689 5696 5706 5702 5698 5702 5702 5697 5697 5693 5694 5693 5689 5694 5697 5706 5706 5703 5701 5702 5703 5704 5704 5702 5700 5699 5700
5594 5604 5611 5621 5627 5632 5635 5641 5647 5649 5649 5656 5659 5659 5655 5657 5670 5667 5677 5664 5671 5674 5679 5675 5669 5673 5675 5675 5674 5680 5680 5690 5689 5688 5687 5685 5687 5685 5682 5679 5679 5679 5678